| time (UTC) | temp C | wind direction | speed KPH | gust KPH | rain 1hr cm | rain 24hr cm | rain mn cm | humidity % | barometer mb |
| 20260505101023 | 11 | 94 | 9.7 | 25.7 | 0.00 | 0.05 | 0.00 | 51 | 1006.4 |
| 20260505100540 | 11 | 86 | 8.0 | 25.7 | 0.00 | 0.05 | 0.00 | 52 | 1006.2 |
| 20260505100156 | 11 | 86 | 9.7 | 25.7 | 0.00 | 0.05 | 0.00 | 52 | 1006.0 |
| 20260505095532 | 11 | 116 | 8.0 | 25.7 | 0.00 | 0.05 | 0.00 | 53 | 1006.0 |
| 20260505095017 | 11 | 63 | 6.4 | 30.6 | 0.00 | 0.05 | 0.00 | 53 | 1005.9 |
| 20260505094637 | 11 | 63 | 12.9 | 30.6 | 0.00 | 0.05 | 0.00 | 52 | 1005.9 |
| 20260505094023 | 11 | 98 | 12.9 | 30.6 | 0.00 | 0.05 | 0.00 | 52 | 1005.7 |
| 20260505093542 | 11 | 101 | 9.7 | 22.5 | 0.00 | 0.05 | 0.00 | 52 | 1005.6 |
| 20260505093125 | 11 | 112 | 11.3 | 24.1 | 0.00 | 0.05 | 0.00 | 51 | 1005.3 |
| 20260505092519 | 11 | 79 | 9.7 | 24.1 | 0.00 | 0.05 | 0.00 | 51 | 1005.0 |
| 20260505092030 | 12 | 240 | 6.4 | 24.1 | 0.00 | 0.05 | 0.00 | 51 | 1005.0 |
| 20260505091638 | 12 | 57 | 11.3 | 32.2 | 0.00 | 0.05 | 0.00 | 50 | 1004.8 |
| 20260505091028 | 12 | 59 | 16.1 | 32.2 | 0.00 | 0.05 | 0.00 | 50 | 1004.8 |
| 20260505090517 | 12 | 115 | 11.3 | 32.2 | 0.00 | 0.05 | 0.00 | 49 | 1004.5 |
| 20260505090145 | 12 | 57 | 14.5 | 29.0 | 0.00 | 0.05 | 0.00 | 49 | 1004.7 |
| 20260505085528 | 12 | 129 | 12.9 | 25.7 | 0.00 | 0.05 | 0.00 | 49 | 1004.7 |
| 20260505085022 | 12 | 86 | 11.3 | 20.9 | 0.00 | 0.05 | 0.00 | 49 | 1004.6 |
| 20260505084635 | 12 | 111 | 9.7 | 22.5 | 0.00 | 0.05 | 0.00 | 49 | 1004.5 |
| 20260505084040 | 12 | 115 | 9.7 | 30.6 | 0.00 | 0.05 | 0.00 | 48 | 1004.5 |
| 20260505083527 | 12 | 109 | 14.5 | 30.6 | 0.00 | 0.05 | 0.00 | 48 | 1004.4 |
| 20260505083129 | 13 | 102 | 12.9 | 25.7 | 0.00 | 0.05 | 0.00 | 47 | 1004.5 |
| 20260505082536 | 13 | 94 | 12.9 | 35.4 | 0.00 | 0.05 | 0.00 | 46 | 1004.3 |
| 20260505082023 | 13 | 131 | 17.7 | 35.4 | 0.00 | 0.05 | 0.00 | 46 | 1004.4 |
| 20260505081631 | 13 | 88 | 12.9 | 27.4 | 0.00 | 0.05 | 0.00 | 46 | 1004.4 |
| 20260505081022 | 13 | 72 | 12.9 | 24.1 | 0.00 | 0.05 | 0.00 | 47 | 1004.4 |
| 20260505080529 | 13 | 147 | 8.0 | 24.1 | 0.00 | 0.05 | 0.00 | 47 | 1004.2 |
| 20260505080154 | 13 | 103 | 8.0 | 22.5 | 0.00 | 0.05 | 0.00 | 47 | 1004.2 |
| 20260505075540 | 13 | 126 | 9.7 | 24.1 | 0.00 | 0.05 | 0.00 | 47 | 1004.1 |
| 20260505075033 | 14 | 64 | 6.4 | 20.9 | 0.00 | 0.05 | 0.00 | 46 | 1003.9 |
| 20260505074630 | 14 | 184 | 6.4 | 25.7 | 0.00 | 0.05 | 0.00 | 45 | 1003.8 |
| 20260505074030 | 14 | 119 | 14.5 | 25.7 | 0.00 | 0.05 | 0.00 | 44 | 1003.6 |
| 20260505073521 | 14 | 196 | 8.0 | 20.9 | 0.00 | 0.05 | 0.00 | 45 | 1003.7 |
| 20260505073134 | 15 | 178 | 9.7 | 27.4 | 0.00 | 0.05 | 0.00 | 45 | 1003.8 |
| 20260505072518 | 15 | 107 | 11.3 | 27.4 | 0.00 | 0.05 | 0.00 | 45 | 1003.8 |
| 20260505072039 | 15 | 360 | 8.0 | 25.7 | 0.00 | 0.05 | 0.00 | 45 | 1003.9 |
| 20260505071625 | 15 | 154 | 9.7 | 27.4 | 0.00 | 0.05 | 0.00 | 46 | 1003.9 |
| 20260505071038 | 15 | 101 | 9.7 | 27.4 | 0.00 | 0.05 | 0.00 | 46 | 1004.0 |
| 20260505070517 | 15 | 100 | 9.7 | 32.2 | 0.00 | 0.05 | 0.00 | 46 | 1004.0 |
| 20260505070142 | 15 | 74 | 8.0 | 25.7 | 0.00 | 0.05 | 0.00 | 46 | 1004.0 |
| 20260505065544 | 15 | 80 | 4.8 | 20.9 | 0.00 | 0.05 | 0.00 | 46 | 1004.2 |
| 20260505065026 | 15 | 125 | 9.7 | 33.8 | 0.00 | 0.05 | 0.00 | 46 | 1004.1 |
| 20260505064631 | 16 | 69 | 9.7 | 33.8 | 0.00 | 0.05 | 0.00 | 47 | 1004.0 |
| 20260505064038 | 16 | 130 | 6.4 | 19.3 | 0.00 | 0.05 | 0.00 | 47 | 1003.8 |
| 20260505063532 | 16 | 36 | 6.4 | 19.3 | 0.00 | 0.05 | 0.00 | 47 | 1003.7 |
| 20260505063120 | 16 | 93 | 6.4 | 25.7 | 0.00 | 0.05 | 0.00 | 48 | 1003.6 |
| 20260505062545 | 16 | 101 | 8.0 | 25.7 | 0.00 | 0.05 | 0.00 | 48 | 1003.5 |
| 20260505062031 | 16 | 96 | 8.0 | 25.7 | 0.00 | 0.05 | 0.00 | 48 | 1003.3 |
| 20260505061629 | 16 | 15 | 9.7 | 25.7 | 0.00 | 0.05 | 0.00 | 49 | 1003.2 |
| 20260505061038 | 16 | 134 | 8.0 | 24.1 | 0.00 | 0.05 | 0.00 | 50 | 1003.3 |
| 20260505060537 | 16 | 107 | 8.0 | 22.5 | 0.00 | 0.05 | 0.00 | 50 | 1003.1 |
| 20260505060149 | 16 | 121 | 8.0 | 22.5 | 0.00 | 0.05 | 0.00 | 51 | 1003.2 |
| 20260505055523 | 16 | 103 | 11.3 | 22.5 | 0.00 | 0.05 | 0.00 | 51 | 1003.1 |
| 20260505055033 | 16 | 53 | 9.7 | 25.7 | 0.00 | 0.05 | 0.00 | 53 | 1003.1 |
| 20260505054651 | 16 | 116 | 9.7 | 25.7 | 0.00 | 0.05 | 0.00 | 53 | 1002.8 |
| 20260505054024 | 16 | 94 | 6.4 | 19.3 | 0.00 | 0.05 | 0.00 | 54 | 1002.7 |
| 20260505053542 | 16 | 111 | 8.0 | 19.3 | 0.00 | 0.05 | 0.00 | 53 | 1002.4 |
| 20260505053141 | 16 | 109 | 8.0 | 19.3 | 0.00 | 0.05 | 0.00 | 54 | 1002.4 |
| 20260505052517 | 16 | 107 | 8.0 | 27.4 | 0.00 | 0.05 | 0.00 | 54 | 1002.2 |
| 20260505052040 | 16 | 111 | 9.7 | 27.4 | 0.00 | 0.05 | 0.00 | 55 | 1001.8 |
| 20260505051625 | 16 | 103 | 9.7 | 22.5 | 0.00 | 0.05 | 0.00 | 56 | 1001.8 |
| 20260505051032 | 16 | 85 | 8.0 | 20.9 | 0.00 | 0.05 | 0.00 | 56 | 1001.8 |
| 20260505050531 | 17 | 77 | 6.4 | 20.9 | 0.00 | 0.05 | 0.00 | 56 | 1001.9 |
| 20260505050149 | 17 | 95 | 9.7 | 20.9 | 0.00 | 0.05 | 0.00 | 56 | 1001.9 |
| 20260505041634 | 18 | 156 | 6.4 | 16.1 | 0.00 | 0.05 | 0.05 | 54 | 1001.8 |
| 20260505041018 | 18 | 153 | 8.0 | 16.1 | 0.00 | 0.05 | 0.05 | 55 | 1001.8 |
| 20260505040518 | 18 | 156 | 3.2 | 19.3 | 0.00 | 0.05 | 0.05 | 55 | 1001.7 |
| 20260505040129 | 18 | 360 | 11.3 | 22.5 | 0.00 | 0.05 | 0.05 | 55 | 1001.5 |
| 20260505035524 | 18 | 360 | 12.9 | 22.5 | 0.00 | 0.05 | 0.05 | 55 | 1001.3 |
| 20260505035030 | 18 | 360 | 11.3 | 17.7 | 0.00 | 0.05 | 0.05 | 55 | 1001.3 |
| 20260505034634 | 18 | 68 | 11.3 | 16.1 | 0.00 | 0.05 | 0.05 | 56 | 1001.3 |
| 20260505034023 | 17 | 82 | 6.4 | 16.1 | 0.00 | 0.05 | 0.05 | 56 | 1001.2 |
| 20260505033540 | 17 | 57 | 6.4 | 12.9 | 0.00 | 0.05 | 0.05 | 56 | 1001.3 |
| 20260505033100 | 17 | 65 | 1.6 | 4.8 | 0.00 | 0.05 | 0.05 | 56 | 1001.2 |
| 20260505032537 | 18 | 86 | 1.6 | 6.4 | 0.00 | 0.05 | 0.05 | 55 | 1001.3 |
| 20260505032034 | 18 | 77 | 1.6 | 6.4 | 0.00 | 0.05 | 0.05 | 54 | 1001.2 |
| 20260505031615 | 18 | 82 | 1.6 | 6.4 | 0.00 | 0.05 | 0.05 | 55 | 1001.3 |
| 20260505031030 | 18 | 99 | 3.2 | 6.4 | 0.00 | 0.05 | 0.05 | 54 | 1001.2 |
| 20260505030519 | 18 | 360 | 0.0 | 0.0 | 0.00 | 0.05 | 0.05 | 54 | 1001.2 |
| 20260505030143 | 19 | 290 | 0.0 | 1.6 | 0.00 | 0.05 | 0.05 | 54 | 1001.1 |
| 20260505025541 | 19 | 11 | 0.0 | 16.1 | 0.00 | 0.05 | 0.05 | 54 | 1001.0 |
| 20260505025038 | 18 | 360 | 6.4 | 16.1 | 0.00 | 0.05 | 0.05 | 54 | 1000.9 |
| 20260505024625 | 18 | 105 | 0.0 | 6.4 | 0.00 | 0.05 | 0.05 | 56 | 1000.9 |
| 20260505024027 | 18 | 167 | 1.6 | 6.4 | 0.00 | 0.05 | 0.05 | 57 | 1000.7 |
| 20260505023521 | 18 | 78 | 3.2 | 8.0 | 0.00 | 0.05 | 0.05 | 56 | 1000.6 |
| 20260505023124 | 18 | 38 | 3.2 | 8.0 | 0.00 | 0.05 | 0.05 | 56 | 1000.6 |
| 20260505022519 | 18 | 42 | 1.6 | 6.4 | 0.00 | 0.05 | 0.05 | 57 | 1000.6 |
| 20260505022047 | 18 | 84 | 3.2 | 6.4 | 0.00 | 0.05 | 0.05 | 55 | 1000.5 |
| 20260505021638 | 18 | 101 | 3.2 | 9.7 | 0.00 | 0.05 | 0.05 | 57 | 1000.5 |
| 20260505021036 | 18 | 101 | 4.8 | 9.7 | 0.00 | 0.05 | 0.05 | 58 | 1000.3 |
| 20260505020537 | 18 | 360 | 3.2 | 6.4 | 0.00 | 0.05 | 0.05 | 58 | 1000.2 |
| 20260505020157 | 17 | 78 | 3.2 | 6.4 | 0.00 | 0.05 | 0.05 | 61 | 1000.1 |
| 20260505015519 | 17 | 93 | 4.8 | 9.7 | 0.00 | 0.05 | 0.05 | 63 | 1000.1 |
| 20260505015019 | 18 | 90 | 4.8 | 6.4 | 0.00 | 0.05 | 0.05 | 63 | 1000.0 |
| 20260505014624 | 18 | 111 | 4.8 | 6.4 | 0.00 | 0.05 | 0.05 | 61 | 1000.1 |
| 20260505014039 | 18 | 113 | 3.2 | 6.4 | 0.00 | 0.05 | 0.05 | 62 | 1000.1 |
| 20260505013537 | 19 | 142 | 3.2 | 4.8 | 0.00 | 0.05 | 0.05 | 62 | 1000.0 |
| 20260505013048 | 19 | 175 | 1.6 | 4.8 | 0.00 | 0.05 | 0.05 | 61 | 1000.1 |
| 20260505012541 | 20 | 172 | 1.6 | 4.8 | 0.03 | 0.05 | 0.05 | 61 | 1000.3 |
| 20260505012020 | 20 | 184 | 1.6 | 6.4 | 0.03 | 0.05 | 0.05 | 62 | 1000.1 |
| 20260505011638 | 20 | 360 | 4.8 | 6.4 | 0.05 | 0.05 | 0.05 | 60 | 1000.1 |
| 20260505011020 | 20 | 360 | 3.2 | 4.8 | 0.05 | 0.05 | 0.05 | 57 | 1000.2 |
| 20260505010540 | 20 | 360 | 1.6 | 4.8 | 0.05 | 0.05 | 0.05 | 54 | 1000.4 |
| 20260505010158 | 20 | 360 | 0.0 | 8.0 | 0.05 | 0.05 | 0.05 | 58 | 1000.4 |
| 20260505005539 | 20 | 360 | 1.6 | 8.0 | 0.05 | 0.05 | 0.05 | 57 | 1000.5 |
| 20260505005032 | 20 | 360 | 0.0 | 4.8 | 0.05 | 0.05 | 0.05 | 54 | 1000.6 |
| 20260505004642 | 21 | 360 | 1.6 | 6.4 | 0.05 | 0.05 | 0.05 | 56 | 1000.7 |
| 20260505004027 | 21 | 360 | 0.0 | 16.1 | 0.05 | 0.05 | 0.05 | 57 | 1000.9 |
| 20260505003535 | 21 | 360 | 6.4 | 17.7 | 0.05 | 0.05 | 0.05 | 56 | 1000.7 |
| 20260505003139 | 22 | 360 | 9.7 | 29.0 | 0.05 | 0.05 | 0.05 | 52 | 1000.5 |
| 20260505002540 | 21 | 360 | 19.3 | 38.6 | 0.03 | 0.03 | 0.03 | 47 | 1000.8 |
| 20260505002044 | 22 | 360 | 14.5 | 51.5 | 0.03 | 0.03 | 0.03 | 48 | 1000.9 |
| 20260505001636 | 22 | 360 | 27.4 | 51.5 | 0.00 | 0.00 | 0.00 | 46 | 1001.1 |
| 20260505001019 | 24 | 360 | 32.2 | 51.5 | 0.00 | 0.00 | 0.00 | 39 | 1001.0 |
| 20260505000529 | 25 | 360 | 35.4 | 48.3 | 0.00 | 0.00 | 0.00 | 32 | 1000.8 |
| 20260505000158 | 26 | 360 | 22.5 | 41.8 | 0.00 | 0.00 | 0.00 | 30 | 1000.7 |
| 20260504235542 | 26 | 360 | 16.1 | 46.7 | 0.00 | 0.00 | 0.00 | 30 | 1000.6 |
| 20260504235037 | 26 | 360 | 16.1 | 30.6 | 0.00 | 0.00 | 0.00 | 31 | 1000.7 |
| 20260504234647 | 25 | 360 | 3.2 | 8.0 | 0.00 | 0.00 | 0.00 | 33 | 1000.6 |
| 20260504234032 | 26 | 360 | 1.6 | 6.4 | 0.00 | 0.00 | 0.00 | 33 | 1000.4 |
| 20260504233539 | 26 | 360 | 1.6 | 9.7 | 0.00 | 0.00 | 0.00 | 32 | 1000.3 |
| 20260504233151 | 26 | 360 | 4.8 | 9.7 | 0.00 | 0.00 | 0.00 | 32 | 1000.3 |
| 20260504232530 | 26 | 360 | 4.8 | 16.1 | 0.00 | 0.00 | 0.00 | 31 | 1000.3 |
| 20260504232032 | 26 | 360 | 9.7 | 19.3 | 0.00 | 0.00 | 0.00 | 31 | 1000.3 |
| 20260504231639 | 26 | 169 | 12.9 | 24.1 | 0.00 | 0.00 | 0.00 | 31 | 1000.4 |
| 20260504231032 | 26 | 152 | 11.3 | 19.3 | 0.00 | 0.00 | 0.00 | 32 | 1000.6 |
| 20260504230542 | 26 | 148 | 12.9 | 24.1 | 0.00 | 0.00 | 0.00 | 31 | 1000.5 |
| 20260504230153 | 26 | 138 | 14.5 | 24.1 | 0.00 | 0.00 | 0.00 | 31 | 1000.7 |
| 20260504225540 | 26 | 142 | 14.5 | 27.4 | 0.00 | 0.00 | 0.00 | 31 | 1000.7 |
| 20260504225035 | 26 | 131 | 19.3 | 37.0 | 0.00 | 0.00 | 0.00 | 31 | 1001.1 |
| 20260504224646 | 26 | 131 | 25.7 | 37.0 | 0.00 | 0.00 | 0.00 | 31 | 1000.9 |
| 20260504224032 | 27 | 147 | 24.1 | 33.8 | 0.00 | 0.00 | 0.00 | 29 | 1001.1 |
| 20260504223520 | 27 | 178 | 24.1 | 43.5 | 0.00 | 0.00 | 0.00 | 29 | 1001.1 |
| 20260504223143 | 28 | 145 | 30.6 | 43.5 | 0.00 | 0.00 | 0.00 | 28 | 1001.1 |
| 20260504222535 | 29 | 138 | 22.5 | 35.4 | 0.00 | 0.00 | 0.00 | 29 | 1001.3 |
| 20260504222024 | 29 | 118 | 14.5 | 27.4 | 0.00 | 0.00 | 0.00 | 29 | 1000.9 |
| 20260504221635 | 28 | 121 | 17.7 | 27.4 | 0.00 | 0.00 | 0.00 | 29 | 1001.1 |
| 20260504221043 | 28 | 111 | 16.1 | 22.5 | 0.00 | 0.00 | 0.00 | 27 | 1001.2 |
| 20260504220527 | 28 | 132 | 16.1 | 25.7 | 0.00 | 0.00 | 0.00 | 28 | 1001.1 |
| 20260504220145 | 28 | 138 | 17.7 | 24.1 | 0.00 | 0.00 | 0.00 | 27 | 1001.1 |
| 20260504215522 | 29 | 121 | 17.7 | 24.1 | 0.00 | 0.00 | 0.00 | 25 | 1001.0 |
| 20260504215032 | 29 | 117 | 11.3 | 24.1 | 0.00 | 0.00 | 0.00 | 23 | 1001.1 |
| 20260504214616 | 30 | 105 | 14.5 | 24.1 | 0.00 | 0.00 | 0.00 | 23 | 1001.1 |
| 20260504214033 | 29 | 98 | 12.9 | 25.7 | 0.00 | 0.00 | 0.00 | 23 | 1001.2 |
| 20260504213543 | 30 | 128 | 12.9 | 27.4 | 0.00 | 0.00 | 0.00 | 24 | 1001.2 |
| 20260504213131 | 30 | 117 | 17.7 | 27.4 | 0.00 | 0.00 | 0.00 | 25 | 1001.3 |
| 20260504212543 | 30 | 94 | 16.1 | 30.6 | 0.00 | 0.00 | 0.00 | 25 | 1001.4 |
| 20260504212026 | 30 | 105 | 14.5 | 22.5 | 0.00 | 0.00 | 0.00 | 24 | 1001.4 |
| 20260504211639 | 30 | 132 | 14.5 | 20.9 | 0.00 | 0.00 | 0.00 | 24 | 1001.5 |
| 20260504211043 | 30 | 126 | 14.5 | 29.0 | 0.00 | 0.00 | 0.00 | 25 | 1001.6 |
| 20260504210536 | 30 | 93 | 20.9 | 29.0 | 0.00 | 0.00 | 0.00 | 24 | 1001.5 |
| 20260504210157 | 30 | 66 | 8.0 | 22.5 | 0.00 | 0.00 | 0.00 | 23 | 1001.5 |
| 20260504205520 | 30 | 78 | 12.9 | 22.5 | 0.00 | 0.00 | 0.00 | 22 | 1001.7 |
| 20260504205038 | 30 | 50 | 6.4 | 22.5 | 0.00 | 0.00 | 0.00 | 21 | 1001.8 |
| 20260504204632 | 30 | 103 | 9.7 | 19.3 | 0.00 | 0.00 | 0.00 | 20 | 1001.8 |
| 20260504204041 | 30 | 115 | 12.9 | 20.9 | 0.00 | 0.00 | 0.00 | 23 | 1001.8 |
| 20260504203522 | 30 | 123 | 9.7 | 22.5 | 0.00 | 0.00 | 0.00 | 21 | 1001.9 |
| 20260504203137 | 30 | 72 | 16.1 | 22.5 | 0.00 | 0.00 | 0.00 | 21 | 1002.0 |
| 20260504202517 | 30 | 88 | 12.9 | 29.0 | 0.00 | 0.00 | 0.00 | 22 | 1002.0 |
| 20260504202039 | 30 | 68 | 6.4 | 29.0 | 0.00 | 0.00 | 0.00 | 21 | 1002.1 |
| 20260504201632 | 30 | 117 | 11.3 | 25.7 | 0.00 | 0.00 | 0.00 | 21 | 1002.1 |
| 20260504201022 | 30 | 117 | 8.0 | 22.5 | 0.00 | 0.00 | 0.00 | 21 | 1002.2 |
| 20260504200533 | 30 | 169 | 14.5 | 24.1 | 0.00 | 0.00 | 0.00 | 21 | 1002.3 |
| 20260504200158 | 30 | 136 | 11.3 | 25.7 | 0.00 | 0.00 | 0.00 | 22 | 1002.5 |
| 20260504195528 | 30 | 92 | 16.1 | 25.7 | 0.00 | 0.00 | 0.00 | 20 | 1002.6 |
| 20260504195020 | 30 | 126 | 14.5 | 25.7 | 0.00 | 0.00 | 0.00 | 21 | 1002.4 |
| 20260504194640 | 30 | 144 | 17.7 | 25.7 | 0.00 | 0.00 | 0.00 | 20 | 1002.4 |
| 20260504194018 | 30 | 97 | 4.8 | 27.4 | 0.00 | 0.00 | 0.00 | 20 | 1002.4 |
| 20260504193519 | 30 | 95 | 20.9 | 27.4 | 0.00 | 0.00 | 0.00 | 19 | 1002.8 |
| 20260504193149 | 30 | 103 | 14.5 | 22.5 | 0.00 | 0.00 | 0.00 | 20 | 1002.7 |
| 20260504192523 | 30 | 42 | 11.3 | 22.5 | 0.00 | 0.00 | 0.00 | 19 | 1002.6 |
| 20260504192018 | 30 | 78 | 8.0 | 27.4 | 0.00 | 0.00 | 0.00 | 19 | 1002.6 |
| 20260504191648 | 30 | 168 | 8.0 | 27.4 | 0.00 | 0.00 | 0.00 | 19 | 1002.8 |
| 20260504191034 | 30 | 67 | 14.5 | 22.5 | 0.00 | 0.00 | 0.00 | 19 | 1002.8 |
| 20260504190532 | 30 | 94 | 12.9 | 24.1 | 0.00 | 0.00 | 0.00 | 20 | 1002.8 |
| 20260504190133 | 30 | 81 | 12.9 | 24.1 | 0.00 | 0.00 | 0.00 | 21 | 1002.8 |
| 20260504185524 | 29 | 95 | 9.7 | 24.1 | 0.00 | 0.00 | 0.00 | 19 | 1003.0 |
| 20260504185022 | 29 | 97 | 14.5 | 24.1 | 0.00 | 0.00 | 0.00 | 20 | 1003.1 |
| 20260504184647 | 29 | 85 | 8.0 | 24.1 | 0.00 | 0.00 | 0.00 | 20 | 1003.0 |
| 20260504184033 | 29 | 76 | 11.3 | 24.1 | 0.00 | 0.00 | 0.00 | 21 | 1003.1 |
| 20260504183544 | 29 | 84 | 11.3 | 22.5 | 0.00 | 0.00 | 0.00 | 21 | 1002.9 |
| 20260504183150 | 29 | 52 | 6.4 | 17.7 | 0.00 | 0.00 | 0.00 | 21 | 1002.9 |
| 20260504182527 | 29 | 92 | 9.7 | 22.5 | 0.00 | 0.00 | 0.00 | 20 | 1003.1 |
| 20260504182021 | 29 | 100 | 12.9 | 24.1 | 0.00 | 0.00 | 0.00 | 19 | 1003.1 |
| 20260504181603 | 29 | 84 | 12.9 | 25.7 | 0.00 | 0.00 | 0.00 | 22 | 1003.1 |
| 20260504181041 | 29 | 71 | 4.8 | 25.7 | 0.00 | 0.00 | 0.00 | 22 | 1003.3 |
| 20260504180533 | 29 | 80 | 9.7 | 24.1 | 0.00 | 0.00 | 0.00 | 22 | 1003.3 |
| 20260504180152 | 29 | 95 | 11.3 | 20.9 | 0.00 | 0.00 | 0.00 | 21 | 1003.4 |
| 20260504175538 | 29 | 355 | 6.4 | 22.5 | 0.00 | 0.00 | 0.00 | 21 | 1003.5 |
| 20260504175020 | 29 | 66 | 12.9 | 22.5 | 0.00 | 0.00 | 0.00 | 21 | 1003.4 |
| 20260504174640 | 28 | 78 | 4.8 | 16.1 | 0.00 | 0.00 | 0.00 | 23 | 1003.5 |
| 20260504174026 | 28 | 28 | 4.8 | 14.5 | 0.00 | 0.00 | 0.00 | 23 | 1003.5 |
| 20260504173542 | 28 | 36 | 4.8 | 24.1 | 0.00 | 0.00 | 0.00 | 24 | 1003.5 |
| 20260504173148 | 28 | 76 | 6.4 | 24.1 | 0.00 | 0.00 | 0.00 | 23 | 1003.5 |
| 20260504172522 | 28 | 84 | 4.8 | 19.3 | 0.00 | 0.00 | 0.00 | 24 | 1003.5 |
| 20260504172032 | 28 | 78 | 11.3 | 19.3 | 0.00 | 0.00 | 0.00 | 25 | 1003.6 |
| 20260504171657 | 28 | 346 | 6.4 | 16.1 | 0.00 | 0.00 | 0.00 | 26 | 1003.6 |
| 20260504171033 | 28 | 76 | 4.8 | 17.7 | 0.00 | 0.00 | 0.00 | 26 | 1003.6 |
| 20260504170524 | 27 | 93 | 6.4 | 17.7 | 0.00 | 0.00 | 0.00 | 28 | 1003.6 |
| 20260504170207 | 27 | 69 | 6.4 | 17.7 | 0.00 | 0.00 | 0.00 | 28 | 1003.7 |
| 20260504160141 | 25 | 315 | 3.2 | 8.0 | 0.00 | 0.00 | 0.00 | 34 | 1003.0 |
| 20260504151038 | 21 | 263 | 11.3 | 17.7 | 0.00 | 0.00 | 0.00 | 46 | 1003.0 |
| 20260504150521 | 21 | 273 | 11.3 | 17.7 | 0.00 | 0.00 | 0.00 | 45 | 1003.0 |
| 20260504150216 | 21 | 259 | 11.3 | 19.3 | 0.00 | 0.00 | 0.00 | 45 | 1003.0 |
| 20260504141023 | 18 | 287 | 14.5 | 20.9 | 0.00 | 0.00 | 0.00 | 52 | 1003.2 |
| 20260504140547 | 17 | 247 | 14.5 | 20.9 | 0.00 | 0.00 | 0.00 | 53 | 1003.3 |
| 20260504140231 | 17 | 250 | 14.5 | 19.3 | 0.00 | 0.00 | 0.00 | 54 | 1003.3 |
| 20260504130527 | 13 | 255 | 11.3 | 16.1 | 0.00 | 0.00 | 0.00 | 65 | 1002.8 |
| 20260504130210 | 13 | 267 | 9.7 | 16.1 | 0.00 | 0.00 | 0.00 | 65 | 1002.9 |
| 20260504120135 | 11 | 206 | 4.8 | 8.0 | 0.00 | 0.00 | 0.00 | 68 | 1002.8 |
| 20260504110536 | 12 | 360 | 6.4 | 12.9 | 0.00 | 0.00 | 0.00 | 64 | 1002.7 |
| 20260504110159 | 12 | 360 | 6.4 | 12.9 | 0.00 | 0.00 | 0.00 | 64 | 1002.8 |